Location: Asheville, NC
(35.6000°N, 82.5500°W)
Time: 03:57:01
(UTC-04:00)

Vanguard 1 Rocket - Pass Details

Date: 08 December 2017
Orbit: 652 x 4225 km, 34.3° (Epoch: 16 July)

Event Time Altitude Azimuth Distance (km) Brightness Sun altitude
Rises 02:57:47 0° 286° (WNW) 8,267 - -54.0°
Reaches altitude 10° 03:05:06 10° 276° (W) 7,407 - -52.5°
Maximum altitude 03:23:15 25° 231° (SW) 5,869 - -48.8°
Exits shadow 03:32:40 19° 201° (SSW) 5,771 11.2 -46.9°
Drops below altitude 10° 03:38:26 10° 184° (S) 6,055 11.5 -45.8°
Sets 03:43:44 0° 171° (S) 6,547 11.8 -44.7°
